TimeCDT,TemperatureF,Dew PointF,Humidity,Sea Level PressureIn,VisibilityMPH,Wind Direction,Wind SpeedMPH,Gust SpeedMPH,PrecipitationIn,Events,Conditions,WindDirDegrees,DateUTC
12:53 AM,48.0,43.0,83,29.77,10.0,WNW,11.5,17.3,N/A,,Overcast,300,2012-10-15 05:53:00
1:53 AM,48.0,42.1,80,29.78,10.0,WNW,9.2,-,N/A,,Overcast,300,2012-10-15 06:53:00
2:53 AM,46.9,41.0,80,29.79,10.0,WNW,8.1,16.1,N/A,,Overcast,290,2012-10-15 07:53:00
3:53 AM,46.0,39.9,79,29.81,10.0,WNW,8.1,-,N/A,,Overcast,290,2012-10-15 08:53:00
4:53 AM,44.1,39.9,85,29.82,10.0,WNW,8.1,-,N/A,,Mostly Cloudy,290,2012-10-15 09:53:00
5:53 AM,45.0,39.9,82,29.84,10.0,WNW,6.9,-,N/A,,Overcast,300,2012-10-15 10:53:00
6:31 AM,44.6,39.2,81,29.84,10.0,WNW,8.1,-,N/A,,Overcast,290,2012-10-15 11:31:00
6:53 AM,45.0,39.9,82,29.86,10.0,WNW,5.8,-,N/A,,Overcast,290,2012-10-15 11:53:00
7:53 AM,44.1,39.0,82,29.88,10.0,WNW,8.1,-,N/A,,Overcast,300,2012-10-15 12:53:00
8:35 AM,44.6,39.2,81,29.88,10.0,NW,10.4,-,N/A,,Mostly Cloudy,310,2012-10-15 13:35:00
8:53 AM,46.0,39.0,76,29.89,10.0,NW,12.7,17.3,N/A,,Mostly Cloudy,310,2012-10-15 13:53:00
9:53 AM,46.9,37.0,68,29.91,10.0,NW,13.8,17.3,N/A,,Overcast,310,2012-10-15 14:53:00
10:53 AM,48.0,36.0,63,29.93,10.0,NW,9.2,19.6,N/A,,Mostly Cloudy,320,2012-10-15 15:53:00
11:53 AM,48.9,37.0,64,29.95,10.0,NNW,12.7,18.4,N/A,,Overcast,340,2012-10-15 16:53:00
12:53 PM,51.1,37.9,61,29.95,10.0,North,12.7,-,N/A,,Scattered Clouds,360,2012-10-15 17:53:00
1:53 PM,51.1,37.9,61,29.94,10.0,NE,9.2,-,N/A,,Partly Cloudy,50,2012-10-15 18:53:00
2:53 PM,51.1,37.9,61,29.95,10.0,NNE,9.2,-,N/A,,Clear,20,2012-10-15 19:53:00
3:53 PM,50.0,37.9,63,29.96,10.0,ENE,6.9,-,N/A,,Clear,60,2012-10-15 20:53:00
4:53 PM,48.0,37.0,66,29.97,10.0,East,8.1,-,N/A,,Clear,80,2012-10-15 21:53:00
5:53 PM,45.0,37.0,74,29.96,10.0,ESE,4.6,-,N/A,,Clear,110,2012-10-15 22:53:00
6:53 PM,46.0,37.0,71,29.97,10.0,SE,3.5,-,N/A,,Clear,130,2012-10-15 23:53:00
7:53 PM,43.0,37.9,82,29.98,10.0,Calm,Calm,-,N/A,,Clear,0,2012-10-16 00:53:00
8:53 PM,43.0,39.0,86,29.99,10.0,SSE,3.5,-,N/A,,Clear,160,2012-10-16 01:53:00
9:53 PM,42.1,37.9,85,29.98,10.0,Calm,Calm,-,N/A,,Clear,0,2012-10-16 02:53:00
10:53 PM,42.1,39.0,89,29.97,10.0,Calm,Calm,-,N/A,,Clear,0,2012-10-16 03:53:00
11:53 PM,39.0,37.0,93,29.98,9.0,SSW,3.5,-,N/A,,Clear,200,2012-10-16 04:53:00